Clermont County, Batavia, OH

6:03 AM EST on December 10, 2019 (GMT -0500)
Clermont County, Batavia

Weather History for KI69 - November, 2019

Change the Weather History Date:

Tuesday, November 12, 2019

  Actual Average (WUND) Record (WUND)
Temperature  
Mean Temperature 22 °F -  
Max Temperature 28 °F - - (-1)
Min Temperature 15 °F - - (-1)
Degree Days  
Heating Degree Days 43    
Moisture  
Dew Point 17 °F    
Average Humidity 79    
Maximum Humidity 94    
Minimum Humidity 64    
Precipitation  
Precipitation 0.01 in - - ()
Sea Level Pressure  
Sea Level Pressure 30.35 in    
Wind  
Wind Speed 10 mph (NW)    
Max Wind Speed 15 mph    
Max Gust Speed 25 mph    
Visibility 9 miles    
Events Snow    
Averages and records for this station are not official NWS values.
T = Trace of Precipitation, MM = Missing Value Source: NWS Daily Summary

Daily Weather History Graph

Daily Weather History Graph

Search for Another Location

Airport or City:

Astronomy

Nov. 12, 2019 Rise Set
Actual Time 7:16 AM EST 5:25 PM EST
Civil Twilight 6:47 AM EST 5:53 PM EST
Nautical Twilight 6:15 AM EST 6:25 PM EST
Astronomical Twilight 5:44 AM EST 6:57 PM EST
Moon 5:51 PM EST (11/12) 7:07 AM EST (11/12)
Length of Visible Light 11h 05m
Length of Day
10h 08m
Full, 100% of the Moon is Illuminated
Nov 12
Full
Nov 19
Last Quarter
Nov 26
New
Dec 4
First Quarter
Dec 12
Full

Hourly Weather History & Observations

Time (EST) Temp. Windchill Dew Point Humidity Pressure Visibility Wind Dir Wind Speed Gust Speed Precip Events Conditions
12:15 AM 28.4 °F 19.1 °F 26.6 °F 93% 30.17 in 4.0 mi NW 10.4 mph - N/A Snow Light Snow
12:38 AM 28.0 °F 18.1 °F 26.4 °F 94% 30.18 in 1.5 mi NW 11.5 mph 17.3 mph N/A Snow Light Snow
12:56 AM 28.0 °F 17.5 °F 26.2 °F 93% 30.18 in 2.0 mi NW 12.7 mph 17.3 mph N/A Snow Light Snow
1:15 AM 28.0 °F 20.0 °F 26.6 °F 94% 30.18 in 2.0 mi NW 8.1 mph - 0.01 in Snow Light Snow
1:35 AM 28.0 °F 17.0 °F 26.2 °F 93% 30.19 in 4.0 mi NW 13.8 mph 19.6 mph 0.01 in Snow Light Snow
1:36 AM 28.0 °F 16.5 °F 26.1 °F 92% 30.19 in 5.0 mi NW 15.0 mph 19.6 mph 0.01 in Snow Light Snow
1:55 AM 28.0 °F 20.0 °F 24.8 °F 88% 30.20 in 10.0 mi NNW 8.1 mph 17.3 mph 0.01 in   Overcast
2:18 AM 27.5 °F 15.9 °F 22.8 °F 83% 30.21 in 10.0 mi NNW 15.0 mph 23.0 mph N/A   Overcast
2:36 AM 26.6 °F 15.7 °F 21.2 °F 80% 30.21 in 10.0 mi NNW 12.7 mph 25.3 mph N/A   Mostly Cloudy
2:55 AM 26.6 °F 19.1 °F 22.1 °F 83% 30.21 in 10.0 mi NW 6.9 mph - N/A   Mostly Cloudy
3:15 AM 26.6 °F 15.2 °F 21.7 °F 82% 30.22 in 10.0 mi NNW 13.8 mph 24.2 mph N/A   Overcast
3:35 AM 26.6 °F 18.2 °F 22.1 °F 83% 30.22 in 10.0 mi NNW 8.1 mph 18.4 mph N/A   Overcast
3:58 AM 26.4 °F 17.3 °F 22.8 °F 86% 30.23 in 10.0 mi NW 9.2 mph - N/A   Overcast
4:16 AM 26.2 °F 17.1 °F 23.0 °F 88% 30.23 in 10.0 mi WNW 9.2 mph - N/A   Overcast
4:35 AM 25.9 °F 15.3 °F 22.8 °F 88% 30.24 in 10.0 mi WNW 11.5 mph 18.4 mph N/A   Overcast
4:55 AM 25.7 °F 15.7 °F 22.3 °F 87% 30.25 in 10.0 mi NW 10.4 mph - N/A   Overcast
5:19 AM 25.3 °F 16.0 °F 22.1 °F 87% 30.26 in 10.0 mi WNW 9.2 mph - N/A   Overcast
5:38 AM 24.3 °F 13.9 °F 21.0 °F 87% 30.26 in 10.0 mi WNW 10.4 mph 17.3 mph N/A   Overcast
5:56 AM 23.9 °F 14.2 °F 20.5 °F 87% 30.27 in 10.0 mi WNW 9.2 mph - N/A   Overcast
6:15 AM 23.5 °F 10.8 °F 20.1 °F 87% 30.29 in 10.0 mi NW 15.0 mph 18.4 mph N/A   Overcast
6:35 AM 22.8 °F 11.5 °F 19.0 °F 85% 30.30 in 10.0 mi WNW 11.5 mph 17.3 mph N/A   Overcast
6:59 AM 22.1 °F 10.6 °F 18.0 °F 84% 30.31 in 10.0 mi NW 11.5 mph - N/A Snow Light Snow
7:17 AM 21.9 °F 11.0 °F 18.0 °F 85% 30.32 in 10.0 mi WNW 10.4 mph - N/A Snow Light Snow
7:36 AM 21.2 °F 9.5 °F 17.1 °F 84% 30.33 in 10.0 mi NW 11.5 mph 20.7 mph N/A   Overcast
7:55 AM 21.2 °F 8.3 °F 16.9 °F 83% 30.34 in 10.0 mi NW 13.8 mph - N/A Snow Light Snow
8:15 AM 20.3 °F 9.8 °F 16.2 °F 84% 30.35 in 10.0 mi WNW 9.2 mph - N/A Snow Light Snow
8:39 AM 20.3 °F 9.8 °F 15.8 °F 83% 30.36 in 10.0 mi NW 9.2 mph - N/A Snow Light Snow
8:57 AM 20.3 °F 9.0 °F 16.3 °F 85% 30.37 in 1.8 mi NW 10.4 mph - N/A Snow Light Snow
9:15 AM 19.8 °F 7.1 °F 14.9 °F 81% 30.37 in 4.0 mi WNW 12.7 mph - N/A Snow Light Snow
9:35 AM 19.9 °F 8.6 °F 15.3 °F 82% 30.37 in 7.0 mi WNW 10.4 mph - N/A Snow Light Snow
9:55 AM 19.4 °F 7.9 °F 14.4 °F 81% 30.38 in 5.0 mi NNW 10.4 mph - N/A Snow Light Snow
10:19 AM 19.4 °F 7.2 °F 14.4 °F 81% 30.38 in 5.0 mi NW 11.5 mph - N/A Snow Light Snow
10:37 AM 19.4 °F 6.6 °F 14.5 °F 81% 30.38 in 7.0 mi WNW 12.7 mph - N/A Snow Light Snow
10:55 AM 20.1 °F 8.1 °F 14.7 °F 80% 30.38 in 7.0 mi NNW 11.5 mph - N/A Snow Light Snow
11:15 AM 19.9 °F 8.6 °F 14.0 °F 78% 30.38 in 10.0 mi NNW 10.4 mph 16.1 mph N/A   Overcast
11:16 AM 19.9 °F 9.3 °F 14.0 °F 78% 30.38 in 10.0 mi NNW 9.2 mph 16.1 mph N/A   Overcast
11:35 AM 21.4 °F 11.9 °F 14.5 °F 75% 30.39 in 10.0 mi NW 8.1 mph 17.3 mph N/A   Overcast
11:59 AM 20.8 °F 10.4 °F 14.4 °F 76% 30.39 in 10.0 mi NNW 9.2 mph - N/A Snow Light Snow
12:17 PM 21.2 °F 10.9 °F 14.5 °F 75% 30.39 in 10.0 mi NW 9.2 mph - N/A   Overcast
12:35 PM 21.4 °F 9.7 °F 14.0 °F 73% 30.38 in 10.0 mi NW 11.5 mph 17.3 mph N/A Snow Light Snow
12:56 PM 22.1 °F 13.7 °F 15.1 °F 74% 30.38 in 10.0 mi NNW 6.9 mph - N/A Snow Light Snow
1:15 PM 21.9 °F 11.0 °F 14.7 °F 74% 30.39 in 10.0 mi NNW 10.4 mph 16.1 mph N/A   Overcast
1:57 PM 23.0 °F 13.1 °F 14.7 °F 71% 30.38 in 10.0 mi NNW 9.2 mph - N/A   Overcast
2:15 PM 22.5 °F 14.1 °F 14.2 °F 71% 30.38 in 10.0 mi NNW 6.9 mph - N/A   Overcast
2:35 PM 23.0 °F 13.1 °F 14.5 °F 70% 30.38 in 10.0 mi NNW 9.2 mph 16.1 mph N/A   Overcast
2:55 PM 23.9 °F 12.3 °F 14.4 °F 67% 30.38 in 10.0 mi NW 12.7 mph 17.3 mph N/A   Overcast
2:56 PM 23.7 °F 11.5 °F 14.4 °F 67% 30.38 in 10.0 mi NW 13.8 mph 17.3 mph N/A   Overcast
3:19 PM 23.0 °F 14.7 °F 13.3 °F 66% 30.38 in 10.0 mi NNW 6.9 mph - N/A   Overcast
3:37 PM 23.2 °F 12.0 °F 13.3 °F 66% 30.39 in 10.0 mi NW 11.5 mph - N/A   Overcast
3:55 PM 23.0 °F 14.7 °F 12.7 °F 65% 30.39 in 10.0 mi NNW 6.9 mph - N/A   Overcast
4:15 PM 23.5 °F 16.4 °F 13.1 °F 64% 30.39 in 10.0 mi North 5.8 mph - N/A   Overcast
4:35 PM 23.2 °F 14.1 °F 13.6 °F 67% 30.39 in 10.0 mi NNW 8.1 mph - N/A   Overcast
4:59 PM 22.6 °F 12.6 °F 12.6 °F 65% 30.40 in 10.0 mi NW 9.2 mph - N/A   Overcast
5:17 PM 22.1 °F 13.7 °F 12.7 °F 67% 30.40 in 10.0 mi NNW 6.9 mph - N/A   Mostly Cloudy
5:35 PM 21.7 °F 14.3 °F 12.6 °F 68% 30.41 in 10.0 mi NNW 5.8 mph - N/A   Mostly Cloudy
5:55 PM 21.4 °F 13.8 °F 12.9 °F 70% 30.42 in 10.0 mi NW 5.8 mph - N/A   Overcast
6:15 PM 21.4 °F 15.1 °F 13.6 °F 72% 30.42 in 10.0 mi NW 4.6 mph - N/A   Overcast
6:39 PM 21.4 °F 13.8 °F 15.3 °F 77% 30.43 in 7.0 mi NW 5.8 mph - N/A Snow Light Snow
7:15 PM 21.0 °F 13.4 °F 15.3 °F 78% 30.44 in 5.0 mi NNW 5.8 mph - N/A Snow Light Snow
7:35 PM 20.7 °F 13.0 °F 15.6 °F 81% 30.45 in 7.0 mi NNW 5.8 mph - N/A Snow Light Snow
7:55 PM 20.8 °F 13.2 °F 14.4 °F 76% 30.45 in 10.0 mi NW 5.8 mph - N/A Snow Light Snow
8:18 PM 20.7 °F 15.8 °F 13.6 °F 74% 30.45 in 10.0 mi NW 3.5 mph - N/A   Overcast
8:37 PM 20.7 °F 11.9 °F 12.9 °F 72% 30.45 in 10.0 mi NNW 6.9 mph - N/A   Overcast
8:55 PM 19.4 °F 12.8 °F 12.9 °F 76% 30.45 in 10.0 mi WNW 4.6 mph - N/A   Overcast
9:15 PM 18.5 °F 13.3 °F 13.1 °F 79% 30.44 in 10.0 mi NW 3.5 mph - N/A   Scattered Clouds
9:35 PM 18.1 °F 11.3 °F 13.1 °F 81% 30.44 in 10.0 mi WNW 4.6 mph - N/A   Clear
9:58 PM 18.0 °F 11.1 °F 12.6 °F 79% 30.45 in 10.0 mi NW 4.6 mph - N/A   Clear
10:16 PM 17.6 °F 12.3 °F 12.2 °F 79% 30.45 in 10.0 mi NW 3.5 mph - N/A   Clear
10:55 PM 16.7 °F 9.6 °F 12.2 °F 82% 30.45 in 10.0 mi WNW 4.6 mph - N/A   Clear
11:15 PM 16.7 °F 9.6 °F 12.2 °F 82% 30.44 in 10.0 mi NW 4.6 mph - N/A   Clear
11:38 PM 16.2 °F - 12.2 °F 84% 30.43 in 10.0 mi Calm Calm - N/A   Clear
11:56 PM 15.8 °F 10.2 °F 12.0 °F 85% 30.44 in 10.0 mi WNW 3.5 mph - N/A   Clear